Regional Weather Roundup
Issued by NWS Upton, NY

Current Version | Previous Version | Text Only | Print | Product List | Glossary On
Versions: 1 2 3 4 5 6 7 8 9 10 11 12 13 14 15 16 17 18 19 20 21 22 23 24 25 26 27 28 29 30 31 32 33 34 35 36 37 38 39 40 41 42 43 44 45 46 47 48 49 50
000 ASUS41 KOKX 041504 RWROKX REGIONAL WEATHER ROUNDUP NATIONAL WEATHER SERVICE NEW YORK NY 1100 AM EDT TUE AUG 04 2015 NOTE: "FAIR" INDICATES FEW OR NO CLOUDS BELOW 12,000 FEET WITH NO SIGNIFICANT WEATHER AND/OR OBSTRUCTIONS TO VISIBILITY. NYZ071-072-176-178-NJZ106-104-041600- NEW YORK CITY METRO AREA CITY SKY/WX TMP DP RH WIND PRES REMARKS CENTRAL PARK SUNNY 80 68 66 CALM 29.88S LAGUARDIA APRT SUNNY 82 65 56 SW14G20 29.85R KENNEDY INTL MOSUNNY 82 68 62 SW10 29.88R NEWARK/LIBERTY MOSUNNY 83 66 56 W14 29.86R BRNX BOT. GARD N/A 82 64 54 W2 29.86F TETERBORO SUNNY 83 64 52 SW12 29.84R $$ NYZ177-179-078>081-041600- LONG ISLAND NEW YORK CITY SKY/WX TMP DP RH WIND PRES REMARKS FARMINGDALE SUNNY 82 67 60 SW12 29.87R ISLIP MOSUNNY 83 67 58 SW15 29.85S SHIRLEY SUNNY 84 65 52 S14 29.87R WESTHAMPTON SUNNY 85 62 46 SW12 29.88S MONTAUK POINT N/A 83 70 64 SW8 29.87S $$ NYZ052-065-067-041600- HUDSON VALLEY CITY SKY/WX TMP DP RH WIND PRES REMARKS WHITE PLAINS SUNNY 81 64 56 W9 29.86R NEWBURGH MOSUNNY 75 68 78 SW6 29.86S MONTGOMERY MOSUNNY 79 69 71 W6 29.84S POUGHKEEPSIE SUNNY 81 66 60 SW7 29.83S ALBANY PTSUNNY 77 65 66 CALM 29.85R $$ NJZ001-105-106-008-010-013-015-019>022-104-041600- NEW JERSEY CITY SKY/WX TMP DP RH WIND PRES REMARKS NEWARK/LIBERTY MOSUNNY 83 66 56 W14 29.86R TETERBORO SUNNY 83 64 52 SW12 29.84R CALDWELL SUNNY 82 63 52 SW9 29.86R MORRISTOWN SUNNY 84 64 51 W13 29.86S SOMERVILLE SUNNY 82 67 60 CALM 29.86R SUSSEX SUNNY 78 65 63 SW9 29.86S ANDOVER N/A 77 66 68 VRB7 29.88S TRENTON SUNNY 81 65 58 W10 29.88S MILLVILLE SUNNY 87 69 54 W14G20 29.90S HX 91 ATLANTIC CITY SUNNY 88 72 58 W9 29.89S HX 94 WRIGHTSTOWN SUNNY 83 68 61 W15 29.87S TOMS RIVER N/A 88 63 42 W14 29.88S BELMAR SUNNY 82 64 54 W15 29.89R $$ PAZ047>061-062-071-041600- EASTERN PENNSYLVANIA CITY SKY/WX TMP DP RH WIND PRES REMARKS PHILADELPHIA MOSUNNY 84 65 52 W14 29.90S ALLENTOWN SUNNY 79 67 66 SW12 29.89R SCRANTON MOSUNNY 77 64 64 SW12 29.89R $$ CTZ002-004>006-009-010-012-RIZ004-006-007-MAZ004-011-015-041600- SOUTHERN NEW ENGLAND IN CT CITY SKY/WX TMP DP RH WIND PRES REMARKS BRADLEY INTL MOSUNNY 82 67 60 S10 29.82F HARTFORD SUNNY 81 66 60 VRB5 29.83F DANBURY SUNNY 78 65 63 SW8 29.87R WTRBRY/OXFORD MOSUNNY 79 64 61 VRB7 29.89S BRIDGEPORT SUNNY 80 65 59 SW12 29.86R MERIDEN SUNNY 83 65 54 VRB6 29.85S NEW HAVEN MOSUNNY 78 67 68 S8 29.86R CHESTER FAIR 79 64 61 SW5 29.88R GROTON MOSUNNY 79 67 66 SW9 29.86R WILLIMANTIC MOSUNNY 81 66 60 S9 29.85F IN RI CITY SKY/WX TMP DP RH WIND PRES REMARKS PROVIDENCE PTSUNNY 79 69 71 S9 29.86F BLOCK ISLAND N/A 79 72 78 SW10 29.89S WESTERLY MOSUNNY 80 66 62 SW7 29.87S IN MA CITY SKY/WX TMP DP RH WIND PRES REMARKS BOSTON PTSUNNY 79 69 71 S13 29.84S WORCESTER MOSUNNY 77 64 64 SW9G18 29.87S WESTFIELD MOSUNNY 82 66 58 S9 29.82F PROVINCETOWN MOSUNNY 75 63 64 S13 29.87S NANTUCKET CLOUDY 75 72 90 SW7 29.90S FOG $$ ANZ330-335-338-340-345-350-353-355-041600- COASTAL MARINE OBSERVATIONS STATION/POSITION TIME SKY/WX TEMP WIND PRES VSBY WAVE AIR SEA DIR/SP/G HT/PER (UTC) (F) (DEG/KT/KT) (MB) (MI) (FT/S) NY HARB ENTRANCE 1350 75 75 230/ 8/ 10 1010.7 5/ 8 4S FIRE IS NOT AVBL 20S FIRE ISLAND 1350 76 74 220/ 14/ 16 1010.6 7/ 8 GREAT SOUTH BAY 1400 76 81 240/ 10/ 10 N/A 23SW MTP 1450 75 73 250/ 12/ 14 1011.2 7/ 8 HUDSON CANYON NOT AVBL KINGS POINT 1400 78 81 270/ 1/ 4 1010.0 EXECUTION ROCKS 1400 80 190/ 2/ 4 N/A CENTRAL LI SOUND NOT AVBL EASTERN LI SOUND 1400 73 70 CALM / 2 N/A ROBBINS REEF 1400 77 210/ 8/ 12 1010.0 $$ >>>>>>>>>>>>>>>>>>>>>>>>>>>> KEY <<<<<<<<<<<<<<<<<<<<<<<<<<< > < > SKY/WX - SKY CONDITION/PRESENT WEATHER < > TMP - TEMPERATURE IN FAHRENHEIT < > DP - DEWPOINT IN FAHRENHEIT < > RH - RELATIVE HUMIDITY IN PERCENT < > WIND - DIRECTION AND SPEED IN MPH < > PRES - MEAN SEA LEVEL PRESSURE IN INCHES OF HG < > WCI - WIND CHILL INDEX < > VSB - VISIBILITY IN MILES < > HX - HEAT INDEX < > TC - TEMPERATURE IN CELSIUS < > VRB - VARIABLE WIND DIRECTION < > < >>>>>>>>>>>>>>>>>>>>>>>>>>>> KEY <<<<<<<<<<<<<<<<<<<<<<<<<<<

USA.gov is the U.S. government's official web portal to all federal, state and local government web resources and services.